SIA179 YSCB-YSSY

Flight info

Callsign SIA179
Flight time 0h 32m
Altitude 21000
Route CULIN Y59 RIVET
Aircraft B738/M-SDE2E3FGHIRWXY/LB1

Departure

Time 2026-05-06 00:30
Airport Canberra Airport (YSCB)

Arrival

Time 2026-05-06 01:02
Airport Sydney Kingsford Smith International Airport (YSSY)
Time Latitude Longitude Altitude Speed Heading
2026-05-05 23:59 -35.30606 149.18958 1876 ft 0 kts 220°
2026-05-06 00:19 -35.30604 149.18960 1879 ft 3 kts 220°
2026-05-06 00:19 -35.30584 149.18980 1876 ft 4 kts 218°
2026-05-06 00:19 -35.30563 149.19001 1879 ft 4 kts 221°
2026-05-06 00:20 -35.30545 149.19025 1879 ft 4 kts 248°
2026-05-06 00:20 -35.30543 149.19033 1879 ft 1 kts 258°
2026-05-06 00:24 -35.30547 149.19027 1879 ft 1 kts 229°
2026-05-06 00:24 -35.30562 149.19026 1879 ft 3 kts 160°
2026-05-06 00:24 -35.30572 149.19043 1879 ft 2 kts 118°
2026-05-06 00:24 -35.30577 149.19057 1879 ft 2 kts 115°
2026-05-06 00:25 -35.30583 149.19072 1879 ft 3 kts 115°
2026-05-06 00:25 -35.30607 149.19120 1879 ft 10 kts 130°
2026-05-06 00:25 -35.30659 149.19194 1875 ft 12 kts 133°
2026-05-06 00:25 -35.30730 149.19236 1877 ft 11 kts 173°
2026-05-06 00:26 -35.30805 149.19239 1879 ft 10 kts 180°
2026-05-06 00:26 -35.30876 149.19239 1879 ft 10 kts 180°
2026-05-06 00:26 -35.30945 149.19239 1878 ft 10 kts 180°
2026-05-06 00:26 -35.31013 149.19239 1876 ft 10 kts 178°
2026-05-06 00:27 -35.31079 149.19241 1879 ft 10 kts 179°
2026-05-06 00:27 -35.31146 149.19240 1878 ft 10 kts 181°
2026-05-06 00:27 -35.31213 149.19239 1879 ft 10 kts 180°
2026-05-06 00:27 -35.31279 149.19240 1879 ft 10 kts 180°
2026-05-06 00:28 -35.31345 149.19240 1879 ft 10 kts 180°
2026-05-06 00:28 -35.31410 149.19251 1879 ft 9 kts 159°
2026-05-06 00:28 -35.31455 149.19305 1879 ft 9 kts 116°
2026-05-06 00:28 -35.31470 149.19379 1875 ft 9 kts 94°
2026-05-06 00:29 -35.31445 149.19438 1875 ft 10 kts 18°
2026-05-06 00:29 -35.31177 149.19439 1879 ft 77 kts
2026-05-06 00:29 -35.30385 149.19443 1877 ft 147 kts 360°
2026-05-06 00:29 -35.29213 149.19444 2245 ft 176 kts
2026-05-06 00:30 -35.28016 149.19455 3223 ft 172 kts
2026-05-06 00:30 -35.26745 149.19473 3797 ft 197 kts
2026-05-06 00:30 -35.25293 149.19500 4040 ft 220 kts
2026-05-06 00:30 -35.23708 149.19527 4276 ft 238 kts
2026-05-06 00:31 -35.22027 149.19555 4763 ft 247 kts
2026-05-06 00:31 -35.20238 149.19600 5106 ft 263 kts
2026-05-06 00:31 -35.18447 149.20126 5894 ft 264 kts 13°
2026-05-06 00:31 -35.16643 149.20551 6790 ft 264 kts
2026-05-06 00:32 -35.14803 149.20896 7497 ft 271 kts
2026-05-06 00:32 -35.12924 149.21260 8262 ft 274 kts
2026-05-06 00:32 -35.11035 149.21688 9017 ft 278 kts 14°
2026-05-06 00:32 -35.09181 149.22437 9767 ft 283 kts 19°
2026-05-06 00:33 -35.07321 149.23328 10387 ft 293 kts 20°
2026-05-06 00:33 -35.05351 149.24293 10560 ft 317 kts 20°
2026-05-06 00:33 -35.03228 149.25325 10741 ft 339 kts 20°
2026-05-06 00:33 -35.00996 149.26398 11017 ft 355 kts 20°
2026-05-06 00:34 -34.98657 149.27510 11542 ft 363 kts 20°
2026-05-06 00:34 -34.96295 149.28623 12236 ft 365 kts 20°
2026-05-06 00:34 -34.93907 149.29741 12916 ft 368 kts 19°
2026-05-06 00:34 -34.91499 149.30865 13577 ft 372 kts 19°
2026-05-06 00:35 -34.89070 149.31997 14252 ft 376 kts 19°
2026-05-06 00:35 -34.86617 149.33138 14941 ft 379 kts 19°
2026-05-06 00:35 -34.84169 149.34277 15615 ft 383 kts 19°
2026-05-06 00:35 -34.81665 149.35441 16283 ft 386 kts 19°
2026-05-06 00:36 -34.79146 149.36611 16919 ft 390 kts 19°
2026-05-06 00:36 -34.76600 149.37800 17544 ft 394 kts 21°
2026-05-06 00:36 -34.74253 149.39567 18121 ft 402 kts 40°
2026-05-06 00:36 -34.72481 149.42214 18728 ft 408 kts 58°
2026-05-06 00:37 -34.71119 149.45269 19299 ft 413 kts 61°
2026-05-06 00:37 -34.69791 149.48392 19800 ft 418 kts 61°
2026-05-06 00:37 -34.68458 149.51549 20335 ft 421 kts 61°
2026-05-06 00:37 -34.67124 149.54684 20874 ft 424 kts 61°
2026-05-06 00:38 -34.65754 149.57871 21226 ft 428 kts 60°
2026-05-06 00:38 -34.64345 149.61115 21224 ft 439 kts 60°
2026-05-06 00:38 -34.62901 149.64421 21239 ft 446 kts 60°
2026-05-06 00:38 -34.61443 149.67748 21234 ft 445 kts 60°
2026-05-06 00:39 -34.59990 149.71060 21224 ft 442 kts 60°
2026-05-06 00:39 -34.58565 149.74306 21228 ft 440 kts 60°
2026-05-06 00:39 -34.57120 149.77593 21229 ft 439 kts 60°
2026-05-06 00:39 -34.55681 149.80863 21234 ft 440 kts 60°
2026-05-06 00:40 -34.54239 149.84138 21232 ft 440 kts 60°
2026-05-06 00:40 -34.52819 149.87365 21217 ft 425 kts 60°
2026-05-06 00:40 -34.51451 149.90469 21201 ft 409 kts 60°
2026-05-06 00:40 -34.50128 149.93467 21197 ft 396 kts 60°
2026-05-06 00:41 -34.48833 149.96396 21206 ft 393 kts 60°
2026-05-06 00:41 -34.47554 149.99284 20972 ft 395 kts 60°
2026-05-06 00:41 -34.46260 150.02205 20631 ft 390 kts 60°
2026-05-06 00:41 -34.44979 150.05096 20201 ft 388 kts 60°
2026-05-06 00:42 -34.43706 150.07968 19759 ft 385 kts 60°
2026-05-06 00:42 -34.42445 150.10811 19328 ft 382 kts 60°
2026-05-06 00:42 -34.41193 150.13633 18895 ft 379 kts 59°
2026-05-06 00:42 -34.39943 150.16447 18445 ft 377 kts 60°
2026-05-06 00:43 -34.38702 150.19237 18014 ft 374 kts 60°
2026-05-06 00:43 -34.37475 150.21996 17580 ft 372 kts 60°
2026-05-06 00:43 -34.36268 150.24706 17153 ft 369 kts 60°
2026-05-06 00:43 -34.35052 150.27437 16725 ft 367 kts 60°
2026-05-06 00:44 -34.33843 150.30147 16301 ft 364 kts 60°
2026-05-06 00:44 -34.32641 150.32840 15873 ft 362 kts 60°
2026-05-06 00:44 -34.31445 150.35518 15449 ft 361 kts 60°
2026-05-06 00:44 -34.30256 150.38181 15018 ft 359 kts 60°
2026-05-06 00:45 -34.29073 150.40823 14595 ft 357 kts 60°
2026-05-06 00:45 -34.27891 150.43463 14164 ft 355 kts 60°
2026-05-06 00:45 -34.26718 150.46081 13760 ft 353 kts 60°
2026-05-06 00:45 -34.25554 150.48679 13352 ft 350 kts 60°
2026-05-06 00:46 -34.24414 150.51225 12931 ft 349 kts 60°
2026-05-06 00:46 -34.23263 150.53799 12502 ft 347 kts 60°
2026-05-06 00:46 -34.22118 150.56355 12093 ft 345 kts 60°
2026-05-06 00:46 -34.20980 150.58894 11674 ft 342 kts 60°
2026-05-06 00:47 -34.19848 150.61413 11252 ft 340 kts 60°
2026-05-06 00:47 -34.18723 150.63916 10866 ft 337 kts 60°
2026-05-06 00:47 -34.17621 150.66367 10721 ft 327 kts 60°
2026-05-06 00:47 -34.16552 150.68743 10565 ft 317 kts 60°
2026-05-06 00:48 -34.15512 150.71055 10329 ft 311 kts 60°
2026-05-06 00:48 -34.14487 150.73330 10153 ft 304 kts 60°
2026-05-06 00:48 -34.13492 150.75540 9995 ft 296 kts 60°
2026-05-06 00:48 -34.12523 150.77691 9949 ft 285 kts 60°
2026-05-06 00:49 -34.11561 150.79820 9464 ft 291 kts 60°
2026-05-06 00:49 -34.10592 150.81964 9102 ft 292 kts 60°
2026-05-06 00:49 -34.09642 150.84073 8879 ft 287 kts 60°
2026-05-06 00:49 -34.08707 150.86152 8687 ft 280 kts 60°
2026-05-06 00:50 -34.07779 150.88215 8478 ft 275 kts 60°
2026-05-06 00:50 -34.06871 150.90231 8289 ft 272 kts 60°
2026-05-06 00:50 -34.06566 150.90909 8227 ft 270 kts 60°
2026-05-06 00:50 -34.05749 150.92721 8075 ft 269 kts 60°
2026-05-06 00:51 -34.04856 150.94700 7889 ft 269 kts 60°
2026-05-06 00:51 -34.03964 150.96677 7702 ft 269 kts 60°
2026-05-06 00:51 -34.03065 150.98667 7510 ft 269 kts 60°
2026-05-06 00:51 -34.02183 151.00621 7349 ft 267 kts 61°
2026-05-06 00:52 -34.01302 151.02605 7158 ft 268 kts 61°
2026-05-06 00:52 -34.00426 151.04591 6963 ft 268 kts 61°
2026-05-06 00:52 -33.99551 151.06573 6787 ft 267 kts 61°
2026-05-06 00:52 -33.98682 151.08542 6619 ft 265 kts 61°
2026-05-06 00:53 -33.97830 151.10475 6427 ft 264 kts 62°
2026-05-06 00:53 -33.96967 151.12424 6245 ft 263 kts 62°
2026-05-06 00:53 -33.96107 151.14359 6069 ft 261 kts 62°
2026-05-06 00:53 -33.95253 151.16284 5902 ft 260 kts 62°
2026-05-06 00:54 -33.94398 151.18196 5710 ft 259 kts 59°
2026-05-06 00:54 -33.93327 151.19960 5395 ft 263 kts 50°
2026-05-06 00:54 -33.92120 151.21615 5161 ft 261 kts 49°
2026-05-06 00:54 -33.90926 151.23230 4974 ft 256 kts 49°
2026-05-06 00:55 -33.89757 151.24837 4791 ft 255 kts 49°
2026-05-06 00:55 -33.88592 151.26462 4610 ft 256 kts 50°
2026-05-06 00:55 -33.87435 151.28090 4431 ft 255 kts 50°
2026-05-06 00:55 -33.86281 151.29714 4246 ft 254 kts 50°
2026-05-06 00:56 -33.85142 151.31316 4057 ft 249 kts 50°
2026-05-06 00:56 -33.84058 151.32874 3935 ft 242 kts 56°
2026-05-06 00:56 -33.83479 151.34707 3792 ft 233 kts 87°
2026-05-06 00:56 -33.83749 151.36575 3636 ft 226 kts 116°
2026-05-06 00:57 -33.84709 151.38018 3485 ft 220 kts 143°
2026-05-06 00:57 -33.86085 151.38744 3350 ft 213 kts 169°
2026-05-06 00:57 -33.87520 151.38685 3169 ft 205 kts 201°
2026-05-06 00:57 -33.88552 151.37597 3039 ft 199 kts 237°
2026-05-06 00:58 -33.89285 151.36202 2924 ft 196 kts 236°
2026-05-06 00:58 -33.89898 151.34750 2690 ft 192 kts 246°
2026-05-06 00:58 -33.90368 151.33313 2435 ft 182 kts 250°
2026-05-06 00:58 -33.90732 151.31894 2205 ft 173 kts 253°
2026-05-06 00:59 -33.91052 151.30534 1998 ft 165 kts 253°
2026-05-06 00:59 -33.91358 151.29223 1768 ft 161 kts 253°
2026-05-06 00:59 -33.91654 151.27957 1564 ft 154 kts 255°
2026-05-06 00:59 -33.91937 151.26747 1360 ft 151 kts 255°
2026-05-06 01:00 -33.92125 151.25945 1256 ft 150 kts 255°
2026-05-06 01:00 -33.92411 151.24723 1051 ft 153 kts 256°
2026-05-06 01:00 -33.92712 151.23488 824 ft 157 kts 256°
2026-05-06 01:00 -33.92992 151.22222 518 ft 155 kts 256°
2026-05-06 01:01 -33.93260 151.21013 365 ft 145 kts 255°
2026-05-06 01:01 -33.93546 151.19856 214 ft 146 kts 255°
2026-05-06 01:01 -33.93819 151.18699 37 ft 144 kts 255°
2026-05-06 01:01 -33.94064 151.17655 27 ft 107 kts 254°
2026-05-06 01:02 -33.94229 151.16968 28 ft 63 kts 254°
2026-05-06 01:02 -33.94311 151.16629 27 ft 28 kts 254°
2026-05-06 01:02 -33.94273 151.16493 27 ft 15 kts 343°
2026-05-06 01:02 -33.94197 151.16468 29 ft 8 kts 352°
2026-05-06 01:03 -33.94152 151.16490 29 ft 7 kts 53°
2026-05-06 01:03 -33.94134 151.16537 29 ft 6 kts 67°
2026-05-06 01:03 -33.94121 151.16580 29 ft 5 kts 71°
2026-05-06 01:03 -33.94113 151.16620 29 ft 5 kts 79°
2026-05-06 01:04 -33.94104 151.16658 29 ft 6 kts 72°
2026-05-06 01:04 -33.94086 151.16735 29 ft 11 kts 74°
2026-05-06 01:04 -33.94057 151.16801 29 ft 9 kts 35°
2026-05-06 01:04 -33.94014 151.16784 29 ft 6 kts 299°
2026-05-06 01:05 -33.94021 151.16742 29 ft 5 kts 230°
2026-05-06 01:05 -33.94043 151.16731 29 ft 2 kts 185°
2026-05-06 01:05 -33.94046 151.16732 29 ft 0 kts 178°